Location: Holyhead Bay
(53.3667°N, 4.6667°W)
Time: 18:27:17
(UTC+00:00)

Cosmos 1766 Rocket - Visible Passes

Search period start: 16 April 2021 00:00
Search period end: 26 April 2021 00:00
Orbit: 604 x 634 km, 82.5° (Epoch: 15 April)

Date Brightness Start Highest point End Pass type
(mag) Time Alt. Az. Time Alt. Az. Time Alt. Az.
16 Apr 5.6 20:24:01 10° NNE 20:26:07 13° ENE 20:28:13 10° E visible
16 Apr 3.4 22:00:24 10° N 22:04:45 82° ENE 22:05:45 53° SSE visible
16 Apr 5.9 23:39:47 10° NW 23:42:00 14° W 23:42:54 13° W visible
17 Apr 5.1 20:40:32 10° NNE 20:43:47 20° ENE 20:46:02 14° E visible
17 Apr 3.9 22:17:47 10° NNW 22:22:03 59° W 22:23:12 43° SSW visible
18 Apr 4.5 20:57:28 10° N 21:01:22 31° ENE 21:03:29 20° ESE visible
18 Apr 4.8 22:35:19 10° NNW 22:39:16 35° W 22:40:39 28° SW visible
19 Apr 3.8 21:14:35 10° N 21:18:50 51° ENE 21:20:58 26° SE visible
19 Apr 5.5 22:53:05 10° NW 22:56:23 21° W 22:58:08 17° WSW visible
20 Apr 3.4 21:31:51 10° N 21:36:12 86° ENE 21:38:28 28° SSE visible
20 Apr 6.1 23:11:20 10° NW 23:13:25 13° W 23:15:28 10° WSW visible
21 Apr 5.1 20:11:56 10° NNE 20:15:16 21° ENE 20:18:34 10° ESE visible
21 Apr 4.0 21:49:14 10° NNW 21:53:30 56° W 21:55:59 23° SSW visible
22 Apr 4.5 20:28:53 10° N 20:32:49 32° ENE 20:36:22 12° SE visible
22 Apr 4.9 22:06:47 10° NNW 22:10:41 33° W 22:13:32 16° SSW visible
23 Apr 3.8 20:46:01 10° N 20:50:17 53° ENE 20:53:56 14° SSE visible
23 Apr 5.7 22:24:34 10° NW 22:27:48 21° W 22:31:03 10° SW visible
24 Apr 3.5 21:03:17 10° N 21:07:39 89° ENE 21:11:32 13° S visible
24 Apr 6.2 22:42:54 10° NW 22:44:50 13° W 22:46:45 10° WSW visible
25 Apr 4.2 21:20:41 10° NNW 21:24:56 54° W 21:29:08 10° S visible
